SCP
-0 0 0 0 0 0 0 0 0 0 0 0 0 0 0 0 0 0 0 0 0 0 0 0 0 -0 -0 -0 -0 0 0 0 0 0 0 0 0 0 0 0 0 0 0 0 0 0 0
0 0 0 0 0 0 0 0 0 0 0 0 0 0 0 0 0 0 0 0 0 0 0 0 0 0 -0 0 -0 -0 -0 0 0 0 0 0 0 0 0 0 0 0 0 0 0 0 0
0 0 0 0 0 0 0 0 0 0 0 0 0 0 0 0 0 0 0 0 0 0 0 0 0 0 0 -0 -0 -0 0 0 0 0 0 0 0 0 0 0 0 0 0 0 0 0 0
0 0 0 0 0 0 0 0 0 0 0 0 0 0 0 0 0 0 0 0 0 0 0 0 0 0 0 0 0 0 0 0 0 0 0 0 0 0 0 0 0 0 0 0 0 0 0
0 0 0 0 0 0 0 0 0 0 0 0 0 0 0 0 0 0 0 -0 0 0 0 0 0 0 0 0 0 0 0 0 0 0 0 0 0 0 0 0 0 0 0 0 0 0 0
0 0 0 0 0 0 0 0 0 0 0 0 0 0 0 0 0 0 0 0 0 0 0 0 0 0 -0 0 0 0 0 0 0 0 0 0 0 0 0 0 0 0 0 0 0 0 0
0 0 0 0 0 0 0 0 0 0 0 0 0 0 0 0 0 0 0 0 0 0 0 0 0 0 0 0 0 0 0 0 0 0 0 0 0 0 0 0 0 0 0 0 0 0 0
0 0 0 0 0 0 0 0 0 0 0 0 0 0 0 0 0 0 0 0 -0 -0 0 0 0 0 0 0 0 0 0 0 0 0 -0 0 0 0 0 0 0 0 0 0 0 0 0
0 0 0 0 0 0 0 0 0 0 0 0 0 0 0 0 0 0 0 0 -0 -0 0 0 0 0 0 -0 0 0 0 0 0 0 0 0 0 0 0 0 0 0 0 0 0 0 0
0 0 0 0 0 0 0 0 0 0 0 0 0 0 0 0 0 0 0 0 -0 -0 0 0 0 0 0 0 -0 0 0 0 0 0 0 0 0 0 0 0 0 0 0 0 0 0 0
0 0 0 0 0 0 0 0 0 0 0 0 0 0 0 0 0 0 0 0 -0 0 0 0 0 0 0 -0 -0 -0 0 0 0 -0 0 0 0 -0 0 0 0 0 0 0 0 0 0
0 0 0 0 0 0 0 0 0 0 0 0 0 0 0 0 0 0 0 0 0 0 0 0 0 0 -0 -0 -0 -0 -0 0 0 0 0 0 0 0 0 0 0 0 0 0 0 0 0
0 0 0 0 0 0 0 0 0 0 0 -0 0 0 0 0 0 0 0 0 0 0 0 0 0 0 0 0 0 0 -0 -0 -0 0 0 0 0 0 0 0 0 0 0 0 0 0 0
0 0 0 0 0 0 0 0 0 -0 -0 0 0 0 0 0 0 0 0 0 0 0 0 0 0 0 0 0 0 0 -0 0 0 0 0 0 0 0 0 0 0 0 0 0 0 0 0
0 0 0 0 0 0 0 0 0 0 -0 0 0 0 0 0 0 0 0 0 0 0 0 0 0 0 0 0 0 0 0 -0 0 0 0 0 0 0 0 0 0 0 0 0 0 0 0
0 0 0 0 0 0 0 0 0 0 0 -0 0 0 0 0 0 0 0 0 0 0 0 0 0 0 0 0 0 0 0 0 0 0 0 0 0 0 0 0 0 0 0 0 0 0 0
0 0 0 0 0 0 0 0 0 0 0 -0 0 0 0 0 0 -0 0 0 0 0 0 0 0 0 0 0 0 0 0 0 -0 -0 0 0 0 0 0 0 0 0 0 0 0 0 0
0 0 0 0 0 0 0 0 0 0 -0 -0 0 0 0 0 0 0 0 0 0 0 0 0 0 0 0 0 0 0 0 0 -0 0 0 0 0 0 0 0 0 0 0 0 0 0 0
0 0 0 0 0 0 0 0 0 0 -0 0 -0 0 0 0 0 0 0 0 0 0 0 0 0 0 0 0 0 0 0 0 -0 0 0 0 0 0 0 0 0 0 0 0 0 0 0
0 0 0 0 0 0 0 0 0 0 0 0 0 0 0 0 0 0 0 0 0 0 0 0 0 0 0 0 0 0 0 0 0 0 0 0 0 0 0 0 0 0 0 0 0 0 0
0 0 0 0 0 0 0 0 0 0 -0 0 0 0 0 0 0 0 0 0 0 0 0 0 0 0 0 0 0 0 0 -0 -0 0 0 0 0 0 0 0 0 0 0 0 0 0 0
0 0 0 0 0 0 0 0 0 0 -0 0 0 0 0 0 0 0 0 0 0 0 0 0 0 0 0 0 0 0 0 -0 -0 -0 0 0 0 0 0 0 0 0 0 0 0 0 0
0 0 0 0 0 0 0 0 0 -0 -0 0 0 0 0 0 0 0 0 0 0 0 0 0 0 0 0 0 0 0 0 -0 -0 -0 -0 0 0 0 0 0 0 0 0 0 0 0 0
0 0 0 0 0 0 0 0 0 -0 0 0 0 0 0 0 0 0 0 0 0 0 0 0 0 0 0 0 0 0 0 0 -0 -0 -0 0 0 0 0 0 0 0 0 -0 0 0 0
0 0 0 0 0 0 0 0 0 -0 0 0 0 0 0 0 0 0 0 0 0 0 0 0 0 0 0 0 0 0 0 0 -0 -0 -0 0 0 0 0 0 0 0 0 0 0 0 0
0 0 0 0 0 0 0 0 0 -0 0 0 0 0 0 0 0 0 0 0 0 0 0 0 0 0 0 0 0 0 0 0 -0 -0 0 0 0 0 0 0 0 0 0 0 0 0 0
0 0 0 0 0 0 0 -0 -0 -0 0 0 0 0 0 0 0 0 0 0 0 0 0 0 0 0 0 0 0 0 0 0 -0 -0 -0 -0 0 0 0 0 0 0 0 0 0 0 0
0 0 0 0 0 0 0 0 0 0 0 0 0 0 0 0 0 0 0 0 0 0 0 0 0 0 0 0 0 0 0 0 -0 -0 -0 -0 -0 0 0 0 0 0 0 0 0 0 0
0 0 0 0 0 0 0 0 0 0 0 0 0 0 0 0 0 0 0 0 0 0 0 0 0 0 0 0 0 0 0 0 0 -0 0 -0 0 0 0 0 0 -0 0 0 0 0 0
Wind_Speed_500mb
36 37 41 38 38 40 41 39 34 35 31 29 25 26 25 19 23 23 23 21 19 17 18 20 19 15 11 4 16 27 22 19 12 15 12 21 30 30 32 37 42 33 16 25 9 11 28
38 36 38 40 38 38 41 38 35 36 31 30 27 26 26 18 17 20 21 21 19 19 17 17 15 14 10 13 13 17 17 8 10 12 16 19 19 23 26 30 34 29 47 33 15 15 17
40 39 36 40 39 37 38 42 38 36 33 30 32 26 24 17 15 15 17 17 19 21 16 15 12 8 16 14 14 13 14 5 7 12 20 23 7 15 14 13 29 19 26 23 33 39 14
42 41 37 37 40 38 36 39 41 39 34 31 31 28 24 18 12 13 12 11 17 29 11 15 10 7 11 14 10 14 10 1 2 12 13 33 16 14 11 14 23 28 24 19 34 29 13
49 44 39 38 37 38 36 36 40 42 34 32 32 31 25 17 9 10 10 9 15 28 6 15 9 7 11 14 15 17 12 6 19 17 17 32 18 11 11 23 19 22 27 39 29 32 19
54 43 43 40 38 35 36 34 37 41 37 33 30 27 23 16 6 8 9 7 7 29 14 11 11 3 21 16 17 16 4 10 18 25 22 11 10 13 19 26 26 26 35 41 29 23 27
59 47 43 41 38 33 35 33 35 38 35 33 29 23 19 14 4 5 7 7 4 6 28 19 12 12 10 16 10 13 14 14 26 21 8 8 8 19 28 29 12 27 31 29 28 16 22
59 49 44 41 40 31 32 31 32 34 34 32 26 19 16 10 3 1 3 2 0 7 13 15 12 12 12 15 11 14 8 6 18 17 24 1 15 12 25 19 11 18 25 16 10 13 17
57 50 44 42 43 31 29 29 29 30 33 31 24 13 11 7 5 3 1 6 8 11 2 8 8 12 8 19 11 12 10 6 17 13 13 5 3 7 15 18 21 18 24 24 15 21 22
53 52 45 45 42 33 26 28 26 28 30 29 18 8 7 6 6 2 1 11 10 9 1 11 6 6 5 6 6 7 4 3 0 10 13 4 14 14 20 26 22 20 16 11 13 10 19
62 58 46 46 40 34 25 27 25 26 28 27 10 4 4 5 3 2 6 14 11 3 2 6 5 3 3 4 9 6 3 3 15 12 8 6 13 29 25 23 18 4 17 11 10 19 17
76 68 52 49 41 35 26 25 25 24 24 20 2 2 3 7 7 5 10 18 11 3 5 2 2 2 5 3 7 8 3 2 5 13 6 3 16 19 14 12 9 12 15 16 13 17 13
80 78 56 50 43 37 28 23 23 21 19 7 7 4 5 10 2 10 17 5 2 5 2 2 2 5 3 5 6 13 13 14 10 8 5 4 10 7 9 19 14 18 23 10 10 11 17
82 81 55 51 44 40 30 24 21 18 13 11 11 9 6 8 11 16 6 4 5 2 6 4 5 9 9 14 5 18 14 18 27 16 9 13 6 20 24 22 14 26 28 9 19 18 19
78 88 64 54 45 42 32 26 18 17 9 20 15 9 8 4 7 10 6 6 4 2 4 5 7 9 10 11 8 14 26 28 24 26 14 14 12 11 9 9 6 27 21 18 9 2 7
76 81 66 58 48 43 34 29 19 16 11 27 17 8 0 1 9 6 1 2 2 3 4 7 9 8 9 16 11 12 17 23 33 27 22 12 4 17 8 9 16 10 10 9 5 8 15
85 89 75 63 53 46 38 32 22 18 18 31 18 7 5 1 9 5 4 2 5 11 10 9 9 11 14 13 20 13 12 10 29 23 31 10 2 13 11 21 34 18 11 13 6 19 8
91 90 79 68 56 48 42 35 26 21 29 35 14 5 7 5 6 5 2 4 2 9 13 13 11 20 21 14 16 18 21 18 20 25 20 18 8 8 20 13 26 30 33 28 15 13 14
92 79 94 71 61 53 46 39 32 26 39 37 14 7 7 8 3 4 5 5 8 10 12 7 11 16 11 15 13 21 25 23 17 23 18 22 10 8 10 9 14 16 25 32 33 21 14
89 89 97 76 64 57 51 43 36 32 42 32 12 6 4 6 5 6 3 6 6 9 15 16 21 19 20 25 26 18 19 10 11 28 33 15 16 22 18 6 17 21 35 38 29 11 24
88 87 86 84 68 62 54 48 40 36 41 34 12 4 9 6 9 5 3 2 8 7 11 9 11 16 18 19 24 32 30 33 23 16 15 6 11 20 24 12 13 15 27 39 37 34 26
85 86 90 88 70 64 56 51 45 42 47 33 15 11 7 6 6 7 6 9 8 6 7 11 16 22 16 24 29 36 19 12 11 8 4 10 6 11 9 14 17 15 17 29 39 37 39
85 81 102 85 73 69 63 56 49 48 49 18 22 21 10 9 6 6 4 4 2 1 4 10 11 16 27 27 23 33 33 27 14 3 10 8 5 9 5 15 7 11 36 34 34 37 34
104 85 97 83 81 74 64 59 52 54 52 25 28 22 10 6 11 9 7 7 11 14 15 11 19 15 10 25 41 40 44 43 42 28 25 9 17 8 4 11 10 1 5 33 37 36 36
105 93 100 89 82 72 65 58 53 51 52 36 28 19 12 5 12 10 14 9 7 11 11 13 10 9 25 25 9 14 5 3 21 35 30 23 7 6 8 17 15 14 12 12 17 19 26
108 99 94 86 79 71 63 57 53 53 50 40 35 26 13 9 10 6 8 8 7 4 6 5 6 11 8 5 4 6 6 9 5 10 8 24 18 8 6 7 8 11 9 6 6 16 9
104 106 96 88 79 74 65 58 55 54 49 42 36 27 17 9 9 10 4 3 3 1 2 0 6 0 2 2 5 5 7 4 6 9 6 7 9 19 18 12 9 7 19 11 6 4 8
114 109 97 91 85 73 65 62 60 56 50 46 37 30 21 11 12 14 10 7 5 5 3 6 4 6 5 3 3 4 6 7 8 5 3 9 8 8 14 7 15 23 18 11 7 7 1
116 108 97 93 83 72 68 62 57 51 48 37 34 27 23 14 13 19 17 13 7 7 7 5 4 2 4 4 4 6 6 5 6 4 2 6 6 4 9 3 10 21 13 11 20 12 6
Wind_Direction_500mb
338 338 334 333 335 337 339 338 335 336 338 342 337 330 331 336 335 345 348 347 343 341 352 -0 12 3 2 342 19 341 7 183 184 194 184 183 178 193 211 202 178 206 233 211 207 206 218
329 334 330 329 329 333 336 337 331 333 337 335 338 330 329 326 332 340 346 344 338 338 343 356 12 39 339 61 3 344 344 178 7 196 181 187 187 202 228 208 193 198 180 190 155 204 185
318 324 327 326 324 328 331 336 335 331 334 336 333 335 330 325 326 337 349 355 357 348 351 350 357 44 47 39 6 4 353 125 346 170 181 177 150 201 205 211 204 204 183 187 172 200 175
309 312 322 321 319 322 327 331 334 333 331 333 334 334 333 323 324 334 345 4 10 358 5 12 60 2 59 8 30 13 5 46 108 136 152 185 224 271 250 184 195 207 198 184 205 204 177
289 301 309 315 314 316 322 328 332 333 332 330 331 338 337 330 318 341 330 353 3 3 33 37 18 340 50 12 18 11 25 94 145 124 128 183 218 236 202 170 171 197 202 206 174 195 205
285 288 297 305 307 310 315 324 329 331 331 331 335 343 340 339 321 329 344 346 53 30 358 1 24 141 28 5 353 357 53 88 134 114 101 356 253 206 203 189 191 179 228 199 208 184 223
285 280 287 295 298 303 309 318 325 330 331 336 339 344 340 347 349 327 353 5 322 98 44 54 28 59 16 348 11 5 91 108 129 165 99 277 231 198 183 201 358 200 220 216 215 134 205
276 271 276 287 292 294 302 312 319 329 330 336 341 342 344 354 54 301 21 327 299 137 69 48 41 44 19 13 13 48 36 165 163 129 121 117 194 179 192 195 190 200 203 189 190 174 218
264 261 269 278 286 285 294 304 314 325 330 338 341 338 348 21 79 77 155 198 175 141 337 45 45 31 30 41 20 41 4 151 145 162 129 163 163 281 182 182 192 202 202 175 199 192 230
263 255 263 270 277 277 284 295 308 319 329 340 336 341 353 57 59 55 178 202 183 166 112 22 54 33 356 341 57 31 13 320 257 160 146 302 305 221 207 200 211 189 246 241 189 214 237
265 255 254 263 267 270 273 285 300 312 325 337 324 349 21 45 223 54 215 196 169 103 13 348 61 323 342 44 131 149 344 277 192 168 244 205 214 200 206 196 205 232 165 185 218 238 296
266 250 246 255 259 262 261 273 290 307 321 333 250 43 81 81 68 160 123 132 129 266 79 47 355 165 194 143 149 155 181 248 113 171 342 7 292 228 219 148 239 141 167 207 209 253 247
253 242 236 247 252 253 251 261 281 300 315 318 162 87 102 122 180 123 129 126 287 7 109 226 219 219 229 156 167 191 189 175 197 161 185 332 202 249 230 193 201 206 177 168 205 218 239
265 236 229 239 244 246 243 247 269 286 303 176 159 87 83 128 106 113 121 209 53 30 168 256 224 252 247 176 194 200 216 215 213 245 159 195 203 205 195 225 198 212 207 207 214 216 222
252 261 223 231 236 239 234 237 249 271 272 176 172 97 62 150 127 125 212 53 50 92 162 245 205 256 193 197 256 216 230 227 219 208 215 188 206 186 226 197 272 212 227 250 290 293 305
246 252 220 225 230 231 225 230 229 250 225 179 175 140 271 133 127 109 345 133 194 202 238 240 264 229 275 189 220 221 232 219 221 217 192 186 150 200 166 204 215 242 232 179 233 238 237
243 250 216 220 223 223 217 222 218 230 199 175 165 185 279 357 118 210 120 152 211 225 227 242 281 275 251 267 230 219 260 249 222 202 209 239 126 163 137 205 209 207 218 221 266 236 279
235 241 218 215 218 216 212 213 209 212 180 171 172 200 206 167 219 210 177 193 235 232 221 260 271 269 271 278 268 233 250 249 205 198 202 207 169 193 208 207 220 234 228 230 221 203 239
234 242 217 212 214 210 208 207 203 201 184 166 172 150 181 163 225 195 159 219 242 219 234 236 260 238 291 276 278 260 252 264 213 214 212 170 200 200 182 209 196 230 216 228 232 253 209
228 232 214 210 210 205 204 203 200 195 184 173 164 151 157 206 265 272 197 218 251 214 262 261 269 285 268 267 262 264 269 283 284 211 253 277 193 200 231 342 161 201 212 214 215 219 228
223 228 223 204 204 201 200 198 198 194 185 178 181 172 167 181 208 202 208 199 248 270 221 251 264 255 304 290 288 286 313 306 238 225 219 207 220 214 232 251 218 218 209 214 216 224 232
220 227 219 200 198 198 200 196 195 190 181 183 164 160 145 144 148 203 171 196 253 256 242 278 262 313 303 286 295 295 297 296 325 312 233 219 210 170 215 243 250 238 224 218 229 225 240
222 217 204 193 193 197 196 197 196 189 181 185 192 168 159 157 182 224 225 207 214 204 233 265 318 307 294 308 312 292 283 269 241 330 333 294 176 166 195 170 176 249 235 228 227 227 233
221 222 195 189 193 192 193 198 196 194 192 187 181 159 167 173 221 217 204 209 229 241 267 282 306 290 344 310 299 279 261 255 252 221 216 259 295 173 136 147 221 0 25 223 235 241 241
213 218 185 188 189 190 192 196 194 193 193 195 184 173 163 175 209 214 210 226 230 236 245 281 300 306 308 303 286 311 191 249 248 235 208 208 242 228 195 205 273 266 181 175 194 253 235
212 193 182 186 187 189 190 193 189 187 187 185 181 185 161 156 218 108 173 219 263 241 200 190 298 311 322 292 303 291 331 331 106 155 357 195 225 280 172 254 233 57 125 140 144 272 140
217 183 182 182 187 192 186 185 184 179 177 174 177 179 160 139 161 137 174 216 151 171 251 285 358 180 350 312 260 299 306 329 325 357 135 179 210 224 233 242 273 108 130 130 265 32 117
203 183 183 181 185 184 182 181 180 177 177 177 172 172 163 122 153 174 153 133 141 216 220 113 202 180 222 240 268 314 288 341 294 311 243 205 210 189 219 236 254 125 132 218 65 81 114
201 185 180 181 180 180 181 178 179 178 171 172 163 165 164 127 148 170 176 184 174 194 192 166 31 129 51 261 197 290 268 265 316 291 189 277 338 315 243 231 73 195 253 293 259 279 287
Wind_Speed_850mb
36 37 41 38 38 40 41 39 34 35 31 29 25 26 25 19 23 23 23 21 19 17 18 20 19 15 11 4 16 27 22 19 12 15 12 21 30 30 32 37 42 33 16 25 9 11 28
38 36 38 40 38 38 41 38 35 36 31 30 27 26 26 18 17 20 21 21 19 19 17 17 15 14 10 13 13 17 17 8 10 12 16 19 19 23 26 30 34 29 47 33 15 15 17
40 39 36 40 39 37 38 42 38 36 33 30 32 26 24 17 15 15 17 17 19 21 16 15 12 8 16 14 14 13 14 5 7 12 20 23 7 15 14 13 29 19 26 23 33 39 14
42 41 37 37 40 38 36 39 41 39 34 31 31 28 24 18 12 13 12 11 17 29 11 15 10 7 11 14 10 14 10 1 2 12 13 33 16 14 11 14 23 28 24 19 34 29 13
49 44 39 38 37 38 36 36 40 42 34 32 32 31 25 17 9 10 10 9 15 28 6 15 9 7 11 14 15 17 12 6 19 17 17 32 18 11 11 23 19 22 27 39 29 32 19
54 43 43 40 38 35 36 34 37 41 37 33 30 27 23 16 6 8 9 7 7 29 14 11 11 3 21 16 17 16 4 10 18 25 22 11 10 13 19 26 26 26 35 41 29 23 27
59 47 43 41 38 33 35 33 35 38 35 33 29 23 19 14 4 5 7 7 4 6 28 19 12 12 10 16 10 13 14 14 26 21 8 8 8 19 28 29 12 27 31 29 28 16 22
59 49 44 41 40 31 32 31 32 34 34 32 26 19 16 10 3 1 3 2 0 7 13 15 12 12 12 15 11 14 8 6 18 17 24 1 15 12 25 19 11 18 25 16 10 13 17
57 50 44 42 43 31 29 29 29 30 33 31 24 13 11 7 5 3 1 6 8 11 2 8 8 12 8 19 11 12 10 6 17 13 13 5 3 7 15 18 21 18 24 24 15 21 22
53 52 45 45 42 33 26 28 26 28 30 29 18 8 7 6 6 2 1 11 10 9 1 11 6 6 5 6 6 7 4 3 0 10 13 4 14 14 20 26 22 20 16 11 13 10 19
62 58 46 46 40 34 25 27 25 26 28 27 10 4 4 5 3 2 6 14 11 3 2 6 5 3 3 4 9 6 3 3 15 12 8 6 13 29 25 23 18 4 17 11 10 19 17
76 68 52 49 41 35 26 25 25 24 24 20 2 2 3 7 7 5 10 18 11 3 5 2 2 2 5 3 7 8 3 2 5 13 6 3 16 19 14 12 9 12 15 16 13 17 13
80 78 56 50 43 37 28 23 23 21 19 7 7 4 5 10 2 10 17 5 2 5 2 2 2 5 3 5 6 13 13 14 10 8 5 4 10 7 9 19 14 18 23 10 10 11 17
82 81 55 51 44 40 30 24 21 18 13 11 11 9 6 8 11 16 6 4 5 2 6 4 5 9 9 14 5 18 14 18 27 16 9 13 6 20 24 22 14 26 28 9 19 18 19
78 88 64 54 45 42 32 26 18 17 9 20 15 9 8 4 7 10 6 6 4 2 4 5 7 9 10 11 8 14 26 28 24 26 14 14 12 11 9 9 6 27 21 18 9 2 7
76 81 66 58 48 43 34 29 19 16 11 27 17 8 0 1 9 6 1 2 2 3 4 7 9 8 9 16 11 12 17 23 33 27 22 12 4 17 8 9 16 10 10 9 5 8 15
85 89 75 63 53 46 38 32 22 18 18 31 18 7 5 1 9 5 4 2 5 11 10 9 9 11 14 13 20 13 12 10 29 23 31 10 2 13 11 21 34 18 11 13 6 19 8
91 90 79 68 56 48 42 35 26 21 29 35 14 5 7 5 6 5 2 4 2 9 13 13 11 20 21 14 16 18 21 18 20 25 20 18 8 8 20 13 26 30 33 28 15 13 14
92 79 94 71 61 53 46 39 32 26 39 37 14 7 7 8 3 4 5 5 8 10 12 7 11 16 11 15 13 21 25 23 17 23 18 22 10 8 10 9 14 16 25 32 33 21 14
89 89 97 76 64 57 51 43 36 32 42 32 12 6 4 6 5 6 3 6 6 9 15 16 21 19 20 25 26 18 19 10 11 28 33 15 16 22 18 6 17 21 35 38 29 11 24
88 87 86 84 68 62 54 48 40 36 41 34 12 4 9 6 9 5 3 2 8 7 11 9 11 16 18 19 24 32 30 33 23 16 15 6 11 20 24 12 13 15 27 39 37 34 26
85 86 90 88 70 64 56 51 45 42 47 33 15 11 7 6 6 7 6 9 8 6 7 11 16 22 16 24 29 36 19 12 11 8 4 10 6 11 9 14 17 15 17 29 39 37 39
85 81 102 85 73 69 63 56 49 48 49 18 22 21 10 9 6 6 4 4 2 1 4 10 11 16 27 27 23 33 33 27 14 3 10 8 5 9 5 15 7 11 36 34 34 37 34
104 85 97 83 81 74 64 59 52 54 52 25 28 22 10 6 11 9 7 7 11 14 15 11 19 15 10 25 41 40 44 43 42 28 25 9 17 8 4 11 10 1 5 33 37 36 36
105 93 100 89 82 72 65 58 53 51 52 36 28 19 12 5 12 10 14 9 7 11 11 13 10 9 25 25 9 14 5 3 21 35 30 23 7 6 8 17 15 14 12 12 17 19 26
108 99 94 86 79 71 63 57 53 53 50 40 35 26 13 9 10 6 8 8 7 4 6 5 6 11 8 5 4 6 6 9 5 10 8 24 18 8 6 7 8 11 9 6 6 16 9
104 106 96 88 79 74 65 58 55 54 49 42 36 27 17 9 9 10 4 3 3 1 2 0 6 0 2 2 5 5 7 4 6 9 6 7 9 19 18 12 9 7 19 11 6 4 8
114 109 97 91 85 73 65 62 60 56 50 46 37 30 21 11 12 14 10 7 5 5 3 6 4 6 5 3 3 4 6 7 8 5 3 9 8 8 14 7 15 23 18 11 7 7 1
116 108 97 93 83 72 68 62 57 51 48 37 34 27 23 14 13 19 17 13 7 7 7 5 4 2 4 4 4 6 6 5 6 4 2 6 6 4 9 3 10 21 13 11 20 12 6
Wind_Direction_850mb
338 338 334 333 335 337 339 338 335 336 338 342 337 330 331 336 335 345 348 347 343 341 352 -0 12 3 2 342 19 341 7 183 184 194 184 183 178 193 211 202 178 206 233 211 207 206 218
329 334 330 329 329 333 336 337 331 333 337 335 338 330 329 326 332 340 346 344 338 338 343 356 12 39 339 61 3 344 344 178 7 196 181 187 187 202 228 208 193 198 180 190 155 204 185
318 324 327 326 324 328 331 336 335 331 334 336 333 335 330 325 326 337 349 355 357 348 351 350 357 44 47 39 6 4 353 125 346 170 181 177 150 201 205 211 204 204 183 187 172 200 175
309 312 322 321 319 322 327 331 334 333 331 333 334 334 333 323 324 334 345 4 10 358 5 12 60 2 59 8 30 13 5 46 108 136 152 185 224 271 250 184 195 207 198 184 205 204 177
289 301 309 315 314 316 322 328 332 333 332 330 331 338 337 330 318 341 330 353 3 3 33 37 18 340 50 12 18 11 25 94 145 124 128 183 218 236 202 170 171 197 202 206 174 195 205
285 288 297 305 307 310 315 324 329 331 331 331 335 343 340 339 321 329 344 346 53 30 358 1 24 141 28 5 353 357 53 88 134 114 101 356 253 206 203 189 191 179 228 199 208 184 223
285 280 287 295 298 303 309 318 325 330 331 336 339 344 340 347 349 327 353 5 322 98 44 54 28 59 16 348 11 5 91 108 129 165 99 277 231 198 183 201 358 200 220 216 215 134 205
276 271 276 287 292 294 302 312 319 329 330 336 341 342 344 354 54 301 21 327 299 137 69 48 41 44 19 13 13 48 36 165 163 129 121 117 194 179 192 195 190 200 203 189 190 174 218
264 261 269 278 286 285 294 304 314 325 330 338 341 338 348 21 79 77 155 198 175 141 337 45 45 31 30 41 20 41 4 151 145 162 129 163 163 281 182 182 192 202 202 175 199 192 230
263 255 263 270 277 277 284 295 308 319 329 340 336 341 353 57 59 55 178 202 183 166 112 22 54 33 356 341 57 31 13 320 257 160 146 302 305 221 207 200 211 189 246 241 189 214 237
265 255 254 263 267 270 273 285 300 312 325 337 324 349 21 45 223 54 215 196 169 103 13 348 61 323 342 44 131 149 344 277 192 168 244 205 214 200 206 196 205 232 165 185 218 238 296
266 250 246 255 259 262 261 273 290 307 321 333 250 43 81 81 68 160 123 132 129 266 79 47 355 165 194 143 149 155 181 248 113 171 342 7 292 228 219 148 239 141 167 207 209 253 247
253 242 236 247 252 253 251 261 281 300 315 318 162 87 102 122 180 123 129 126 287 7 109 226 219 219 229 156 167 191 189 175 197 161 185 332 202 249 230 193 201 206 177 168 205 218 239
265 236 229 239 244 246 243 247 269 286 303 176 159 87 83 128 106 113 121 209 53 30 168 256 224 252 247 176 194 200 216 215 213 245 159 195 203 205 195 225 198 212 207 207 214 216 222
252 261 223 231 236 239 234 237 249 271 272 176 172 97 62 150 127 125 212 53 50 92 162 245 205 256 193 197 256 216 230 227 219 208 215 188 206 186 226 197 272 212 227 250 290 293 305
246 252 220 225 230 231 225 230 229 250 225 179 175 140 271 133 127 109 345 133 194 202 238 240 264 229 275 189 220 221 232 219 221 217 192 186 150 200 166 204 215 242 232 179 233 238 237
243 250 216 220 223 223 217 222 218 230 199 175 165 185 279 357 118 210 120 152 211 225 227 242 281 275 251 267 230 219 260 249 222 202 209 239 126 163 137 205 209 207 218 221 266 236 279
235 241 218 215 218 216 212 213 209 212 180 171 172 200 206 167 219 210 177 193 235 232 221 260 271 269 271 278 268 233 250 249 205 198 202 207 169 193 208 207 220 234 228 230 221 203 239
234 242 217 212 214 210 208 207 203 201 184 166 172 150 181 163 225 195 159 219 242 219 234 236 260 238 291 276 278 260 252 264 213 214 212 170 200 200 182 209 196 230 216 228 232 253 209
228 232 214 210 210 205 204 203 200 195 184 173 164 151 157 206 265 272 197 218 251 214 262 261 269 285 268 267 262 264 269 283 284 211 253 277 193 200 231 342 161 201 212 214 215 219 228
223 228 223 204 204 201 200 198 198 194 185 178 181 172 167 181 208 202 208 199 248 270 221 251 264 255 304 290 288 286 313 306 238 225 219 207 220 214 232 251 218 218 209 214 216 224 232
220 227 219 200 198 198 200 196 195 190 181 183 164 160 145 144 148 203 171 196 253 256 242 278 262 313 303 286 295 295 297 296 325 312 233 219 210 170 215 243 250 238 224 218 229 225 240
222 217 204 193 193 197 196 197 196 189 181 185 192 168 159 157 182 224 225 207 214 204 233 265 318 307 294 308 312 292 283 269 241 330 333 294 176 166 195 170 176 249 235 228 227 227 233
221 222 195 189 193 192 193 198 196 194 192 187 181 159 167 173 221 217 204 209 229 241 267 282 306 290 344 310 299 279 261 255 252 221 216 259 295 173 136 147 221 0 25 223 235 241 241
213 218 185 188 189 190 192 196 194 193 193 195 184 173 163 175 209 214 210 226 230 236 245 281 300 306 308 303 286 311 191 249 248 235 208 208 242 228 195 205 273 266 181 175 194 253 235
212 193 182 186 187 189 190 193 189 187 187 185 181 185 161 156 218 108 173 219 263 241 200 190 298 311 322 292 303 291 331 331 106 155 357 195 225 280 172 254 233 57 125 140 144 272 140
217 183 182 182 187 192 186 185 184 179 177 174 177 179 160 139 161 137 174 216 151 171 251 285 358 180 350 312 260 299 306 329 325 357 135 179 210 224 233 242 273 108 130 130 265 32 117
203 183 183 181 185 184 182 181 180 177 177 177 172 172 163 122 153 174 153 133 141 216 220 113 202 180 222 240 268 314 288 341 294 311 243 205 210 189 219 236 254 125 132 218 65 81 114
201 185 180 181 180 180 181 178 179 178 171 172 163 165 164 127 148 170 176 184 174 194 192 166 31 129 51 261 197 290 268 265 316 291 189 277 338 315 243 231 73 195 253 293 259 279 287